Regional Weather Roundup
Issued by NWS Nashville, TN

Home | Current Version | Previous Version | Text Only | Print | Product List | Glossary On
Versions: 1 2 3 4 5 6 7 8 9 10 11 12 13 14 15 16 17 18 19 20 21 22 23 24 25 26 27 28 29 30 31 32 33 34 35 36 37 38 39 40 41 42 43 44 45 46 47 48 49 50
000
ASUS44 KOHX 212310
RWROHX
MIDDLE TENNESSEE HOURLY WEATHER ROUNDUP
NATIONAL WEATHER SERVICE NASHVILLE TN
600 PM CDT SAT SEP 21 2019

NOTE: "FAIR" INDICATES FEW OR NO CLOUDS BELOW 12,000 FEET WITH
NO SIGNIFICANT WEATHER AND/OR OBSTRUCTIONS TO VISIBILITY.

* THESE REPORTS ARE NOT UNDER NWS QUALITY CONTROL AND MAY NOT
  REPORT WEATHER SUCH AS PRECIPITATION AND FOG.


TNZ005>011-023>034-057-059-062>066-078-080-220000
...NORTHERN MIDDLE TENNESSEE...

CITY           SKY/WX    TMP DP  RH WIND       PRES   REMARKS
CLARKSVILLE    FAIR      88  55  32 SW3       30.13F
CROSSVILLE     FAIR      79  55  43 VRB3      30.25R
DICKSON        CLEAR     86  52  30 S8        30.15S
LEBANON        CLEAR     86  50  28 SW10      30.14S
LIVINGSTON     CLEAR     84  54  34 CALM      30.19S
NASHVILLE      FAIR      87  51  28 S9        30.16S
PORTLAND       CLEAR     86  54  32 SW3       30.16S
ROCKWOOD       CLEAR     81  57  44 CALM      30.23R
SMYRNA         FAIR      87  56  34 S5        30.17R
SPARTA         CLEAR     84  55  37 S6        30.18S
WEST NASHVILLE CLEAR     88  52  29 SW7       30.13S
$$
TNZ056-058-060-061-075>077-079-093>097-220000
...SOUTHERN MIDDLE TENNESSEE...

CITY           SKY/WX    TMP DP  RH WIND       PRES   REMARKS
COLUMBIA       CLEAR     86  52  30 SE5       30.14S
FAYETTEVILLE   CLEAR     86  52  30 SW5       30.17S
LAWRENCEBURG   CLEAR     84  54  34 SE8       30.17R
LEWISBURG      CLEAR     86  54  32 S7        30.16R
MCMINNVILLE    CLEAR     86  54  32 CALM      30.18S
MURFREESBORO   CLEAR     86  52  30 S9        30.14S
PULASKI        CLEAR     86  55  35 SW3       30.16R
SHELBYVILLE    CLEAR     86  54  32 W5        30.17S
TULLAHOMA      CLEAR     84  50  30 SW3       30.17S
WINCHESTER     CLEAR     86  50  28 SW5       30.18R
$$


...KEY TO REMARKS...
VSB - VISIBILITY IN MILES
WCI - WIND CHILL INDEX
HX  - HEAT INDEX




USA.gov is the U.S. government's official web portal to all federal, state and local government web resources and services.